{"data":{"norad_id":58190,"intl_designator":"2023-167R","name":"STARLINK-30820","alt_names":[],"object_type":"PAYLOAD","status":"ACTIVE","operator":null,"country":"US","launch_date":"2023-10-30","launch_site_code":"AFETR","launch_vehicle":null,"mission":null,"orbit_class":"UNKNOWN","rcs_meters":null,"size_class":null,"mass_kg":null,"dimensions":null,"purposes":["comms"],"wikipedia_slug":null,"has_3d_model":false,"image_url":null,"decayed_at":null,"tle_current":{"epoch":"2026-05-25T03:43:39.671328Z","epoch_age_seconds":61654,"freshness":"FRESH","line1":"1 58190U 23167R   26145.15532027  .00000754  00000+0  36929-4 0  9993","line2":"2 58190  43.0003  71.2036 0001098 248.6743 111.3991 15.27584992142684","mean_motion":15.27584992,"eccentricity":0.0001098,"inclination_deg":43.0003,"raan_deg":71.2036,"arg_perigee_deg":248.6743,"mean_anomaly_deg":111.3991,"bstar":3.6929e-5,"rev_number":14268,"period_min":94.266440659035,"perigee_km":482.28079164442,"apogee_km":483.78750482857,"semimajor_km":6861.1711482365,"source":"CELESTRAK","updated_at":"2026-05-25T13:38:18.571893Z"}}}